Location: Powder Track
(41.8531°N, 72.3584°W)
Time: 00:54:51
(UTC+00:00)

Tiros 1 despin weight - Pass Details

Date: 31 July 2021
Orbit: 593 x 641 km, 48.2° (Epoch: 28 September)

Event Time Altitude Azimuth Distance (km) Brightness Sun altitude
Rises 01:19:00 0° 291° (WNW) 2,933 ? -11.8°
Reaches altitude 10° 01:21:37 10° 279° (W) 2,016 ? -12.2°
Maximum altitude 01:25:30 27° 223° (SW) 1,214 ? -12.8°
Enters shadow 01:28:47 13° 170° (S) 1,806 ? -13.2°
